Regional Weather Roundup
Issued by NWS

Home | Current Version | Previous Version | Text Only | Print | Product List | Glossary Off
Versions: 1 2 3 4 5 6 7 8 9 10 11 12 13 14 15 16 17 18 19 20 21 22 23 24 25 26 27 28 29 30 31 32 33 34 35 36 37 38 39 40 41 42 43 44 45 46 47 48 49 50

000
ASUS43 KIND 070759
RWRIN

WEATHER ROUNDUP FOR INDIANA
NATIONAL WEATHER SERVICE INDIANAPOLIS IN
400 AM EDT TUE JUL 07 2015

NOTE: "FAIR" INDICATES FEW OR NO CLOUDS BELOW 12,000 FEET WITH NO
SIGNIFICANT WEATHER AND/OR OBSTRUCTIONS TO VISIBILITY.

* - STATION DOES NOT REPORT WEATHER SUCH AS PRECIPITATION OR FOG.

+ - STATION NOT QUALITY CONTROLLED BY THE NATIONAL WEATHER SERVICE.
    USE DATA WITH CAUTION...ESPECIALLY DEWPOINT AND RELATIVE
    HUMIDITY OBSERVATIONS.

INZ001>003-010>013-019-020-070900-
NORTHWEST INDIANA

CITY           SKY/WX    TMP DP  RH WIND       PRES   REMARKS
RENSSELAER +   LGT RAIN  75  73  94 S13G18    29.86F

$$

LMZ046-743>745-070900-
SOUTHERN LAKE MICHIGAN

STATION/POSITION TIME  TEMP    WIND        PRES    WAVE
                       AIR SEA DIR/SP/G            HT
                 (UTC) (F)     (DEG/KT/KT) (MB)    (FT)
BURNS HARBOR     0700   73     250/  8/ 10 1011.9R
MICHIGAN CITY    0700   69     240/  4/  7   N/A
5NW MICH CITY    0700   69 68  280/  4/  4   N/A     1

$$

INZ004-005-014>016-021>024-070900-
NORTH CENTRAL INDIANA

CITY           SKY/WX    TMP DP  RH WIND       PRES   REMARKS
GOSHEN         CLOUDY    76  70  82 SW13      29.87F
SOUTH BEND     LGT RAIN  76  72  87 SW10      29.87S FOG

$$

INZ006>009-017-018-025>027-070900-
NORTHEAST INDIANA

CITY           SKY/WX    TMP DP  RH WIND       PRES   REMARKS
ANGOLA *+        N/A     75  70  83 SW8       29.89S
FORT WAYNE     CLOUDY    74  70  87 SW10      29.91F

$$

INZ028-029-035-036-043>045-051>053-070900-
WEST CENTRAL INDIANA

CITY           SKY/WX    TMP DP  RH WIND       PRES   REMARKS
CRAWFORDSVL +  MOCLDY    73  70  91 S8        29.92S
GREENCASTLE +  CLOUDY    73  68  83 S7        29.94S
LAFAYETTE      MOCLDY    75  72  90 SW8G16    29.89S
TERRE HAUTE    CLOUDY    76  73  91 S9        29.92S

$$

INZ030>032-037>040-046>048-054>057-064-065-070900-
CENTRAL INDIANA

CITY           SKY/WX    TMP DP  RH WIND       PRES   REMARKS
GREENWOOD *+   CLOUDY    75  70  83 SW7       29.96R
INDIANAPOLIS   CLOUDY    76  70  82 SW10      29.93R
-EAGLE CREEK   CLOUDY    76  72  87 S9        29.94R
KOKOMO *+      CLOUDY    75  70  83 SW10      29.92R
MT COMFORT *+  CLOUDY    73 N/A N/A S7        29.96R
SHELBYVILLE    CLOUDY    75  71  87 S9        29.95S

$$

INZ033-034-041-042-049-050-058-059-070900-
EAST CENTRAL INDIANA

CITY           SKY/WX    TMP DP  RH WIND       PRES   REMARKS
MUNCIE         CLOUDY    76  71  85 SW12G17   29.94S

$$

INZ060-061-067>069-081>083-085>088-070900-
SOUTHWEST INDIANA

CITY           SKY/WX    TMP DP  RH WIND       PRES   REMARKS
EVANSVILLE     PTCLDY    77  73  87 S12       29.97S
HUNTINGBURG *+ PTCLDY    75  72  88 S10G16    29.97F

$$

INZ062-063-066-070>080-084-089>092-070900-
SOUTH CENTRAL AND SOUTHEAST INDIANA

CITY           SKY/WX    TMP DP  RH WIND       PRES   REMARKS
BLOOMINGTON    CLOUDY    76  72  87 SW10      29.96S
MADISON *+     MOCLDY    73  70  88 S5        30.01F
SEYMOUR +      MOCLDY    75  72  88 S5        29.97S

$$



USA.gov is the U.S. government's official web portal to all federal, state and local government web resources and services.